This demonstration page uses our WeatherBlox Daily Observations layout. Learn more.

Left ArrowRight Arrow

36.17497, -115.13722

Hourly Observations for June 15, 2021

Temp ( °F °C ) Dew Point ( °F °C ) Humidity (%) Winds ( mph kmh ) Pressure ( in mb ) Visibility ( mi km ) Precip ( " mm )
12:53 am 00:53 Clear 90 32.2 27 -2.8 10 10 N N/A 29.79 1009 10 16 N/A
1:53 am 01:53 Clear 87 30.6 28 -2.2 12 12 WNW 6 9 29.78 1008 10 16 N/A
2:53 am 02:53 Clear 84 28.9 28 -2.2 13 13 WNW 6 9 29.78 1008 10 16 N/A
3:53 am 03:53 Clear 84 28.9 30 -1.1 14 14 N N/A 29.78 1009 10 16 N/A
4:53 am 04:53 Clear 81 27.2 31 -0.6 16 16 N 3 6 29.80 1009 10 16 N/A
5:53 am 05:53 Sunny 82 27.8 29 -1.7 14 14 WNW 7 11 29.81 1010 10 16 N/A
6:53 am 06:53 Sunny 85 29.4 30 -1.1 14 14 N N/A 29.83 1010 10 16 N/A
7:53 am 07:53 Sunny 90 32.2 29 -1.7 11 11 W 7 11 29.84 1011 10 16 N/A
8:53 am 08:53 Sunny 94 34.4 25 -3.9 8 8 N N/A 29.85 1011 10 16 N/A
9:53 am 09:53 Sunny 97 36.1 26 -3.3 8 8 N N/A 29.85 1011 10 16 N/A
10:53 am 10:53 Sunny 101 38.3 26 -3.3 7 7 VRB 7 11 29.84 1010 10 16 N/A
11:53 am 11:53 Sunny 105 40.6 29 -1.7 7 7 ESE 9 15 29.83 1010 10 16 N/A
12:53 pm 12:53 Sunny 108 42.2 24 -4.4 5 5 N N/A 29.81 1010 10 16 N/A
1:53 pm 13:53 Sunny 111 43.9 23 -5 4 4 SSE 6 9 29.79 1009 10 16 N/A
3:53 pm 15:53 Sunny 113 45 27 -2.8 5 5 S 10 17 29.75 1008 10 16 N/A
4:53 pm 16:53 Sunny 113 45 24 -4.4 4 4 W 7 11 29.74 1007 10 16 N/A
5:53 pm 17:53 Sunny 113 45 25 -3.9 5 5 W 10 17 29.73 1007 10 16 N/A
6:53 pm 18:53 Sunny 111 43.9 25 -3.9 5 5 WSW 9 15 29.73 1007 10 16 N/A
7:53 pm 19:53 Sunny 109 42.8 25 -3.9 5 5 W 7 11 29.74 1007 10 16 N/A
8:53 pm 20:53 Clear 104 40 29 -1.7 7 7 W 6 9 29.76 1008 10 16 N/A
9:53 pm 21:53 Clear 101 38.3 26 -3.3 7 7 NW 7 11 29.78 1008 10 16 N/A
10:53 pm 22:53 Clear 97 36.1 29 -1.7 9 9 W 8 13 29.77 1008 10 16 N/A
11:53 pm 23:53 Clear 94 34.4 26 -3.3 9 9 N N/A 29.78 1008 10 16 N/A

Powered by AerisWeather